Location: Orinda
(37.8771°N, 122.1797°W)
Time: 16:16:42
(UTC+00:00)

SL-8 R/B - Pass Details

Date: 21 October 2019
Orbit: 656 x 668 km, 48.4° (Epoch: 12 November)

Event Time Altitude Azimuth Distance (km) Brightness Sun altitude
Exits shadow 13:25:54 11° 240° (WSW) 1,991 5.7 -11.9°
Maximum altitude 13:30:29 79° 327° (NNW) 676 3.7 -11.0°
Drops below altitude 10° 13:35:17 10° 54° (NE) 2,073 7.0 -10.1°
Sets 13:37:38 0° 56° (NE) 2,986 7.9 -9.6°
